Location: Wanzleben
(52.0609°N, 11.4408°E)
Time: 17:39:20
(UTC+00:00)

Envisat - Pass Details

Date: 02 December 2020
Orbit: 764 x 766 km, 98.1° (Epoch: 20 January)

Event Time Altitude Azimuth Distance (km) Brightness Sun altitude
Rises 04:39:09 0° 19° (NNE) 3,248 6.4 -20.9°
Reaches altitude 10° 04:41:36 10° 27° (NNE) 2,316 5.7 -20.5°
Maximum altitude 04:46:24 40° 97° (E) 1,127 4.4 -19.8°
Drops below altitude 10° 04:51:09 10° 166° (SSE) 2,299 5.8 -19.1°
Sets 04:53:35 0° 174° (S) 3,220 6.5 -18.7°
